Location: *
(46.4833°N, 7.6667°E)
Time: 02:50:31
(UTC+00:00)

STARLINK-1022 - Pass Details

Date: 27 February 2020
Orbit: 548 x 551 km, 53.0° (Epoch: 03 April)

Event Time Altitude Azimuth Distance (km) Brightness Sun altitude
Rises 18:39:26 0° 243° (WSW) 2,710 8.2 -15.9°
Reaches altitude 10° 18:41:39 10° 244° (WSW) 1,820 7.2 -16.3°
Maximum altitude 18:45:47 78° 331° (NNW) 567 3.7 -17.0°
Enters shadow 18:47:51 29° 54° (NE) 1,033 4.6 -17.3°
